Location: Alvis C Story Elementary School
(33.0968°N, 96.6364°W)
Time: 16:43:25
(UTC+00:00)

Cosmos 1805 Rocket - Visible Passes

Search period start: 30 June 2022 00:00
Search period end: 10 July 2022 00:00
Orbit: 605 x 629 km, 82.5° (Epoch: 29 June)

Date Brightness Start Highest point End Pass type
(mag) Time Alt. Az. Time Alt. Az. Time Alt. Az.
30 Jun 5.3 09:29:54 10° SSE 09:33:44 29° E 09:37:35 10° NNE visible
01 Jul 4.0 09:46:46 14° S 09:50:26 59° E 09:54:47 10° NNE visible
02 Jul 3.5 10:03:58 18° SSW 10:07:12 67° W 10:11:36 10° N visible
03 Jul 6.2 08:43:59 10° ESE 08:46:35 15° E 08:49:09 10° NE visible
03 Jul 4.4 10:21:08 16° SW 10:24:03 33° W 10:28:03 10° NNW visible
04 Jul 5.2 09:01:08 20° SE 09:03:11 29° E 09:07:00 10° NNE visible
04 Jul 5.2 10:38:16 11° WSW 10:40:59 18° WNW 10:43:58 10° NNW visible
05 Jul 4.0 09:18:15 35° SSE 09:19:52 59° E 09:24:12 10° NNE visible
06 Jul 3.5 09:35:19 43° SSW 09:36:38 67° W 09:41:01 10° N visible
07 Jul 5.9 08:15:14 15° E 08:16:01 15° E 08:18:34 10° NE visible
07 Jul 4.4 09:52:22 29° WSW 09:53:29 33° W 09:57:28 10° NNW visible
08 Jul 5.0 08:32:16 29° E 08:32:37 29° E 08:36:25 10° NNE visible
08 Jul 5.2 10:09:24 16° W 10:10:25 17° WNW 10:13:23 10° NNW visible
09 Jul 3.9 08:49:17 59° E 08:49:18 59° E 08:53:37 10° NNE visible
